[[{"header":{"parameterUnit":"m.s-1","parameterCategory":1,"la1":30.2991,"la2":30.254,"lo1":-89.0895,"lo2":-89.0444,"dy":0.0017,"dx":0.0017,"nx":28,"ny":28,"refTime":"2025-06-02T21:00:00:Z","depth":0,"parameterNumber":2,"parameterNumberName":"U-component_of_WINDS"},"data":[0,0,0,0,0,0,0,0,0,0,0,0,0,0,0,0,0,0,0,0,0,0,0,0,0,0,0,0,0,0,0,0,0,0,0,0,0,0,0,0,0,0,0,0,0,0,0,0,0,0,0,0,0,0,0,0,0,0,-5.5149,-5.5148,0,-5.5103,-5.5102,-5.5102,-5.4969,-5.4966,-5.4963,-5.4961,-5.4917,-5.4918,-5.492,0,0,0,0,0,0,0,0,0,0,0,0,0,-5.5126,-5.5127,-5.5149,-5.5148,-5.5148,-5.5103,-5.5102,-5.5102,-5.497,-5.4966,-5.4963,-5.4959,-5.4916,-5.4918,-5.492,0,0,0,0,0,0,0,0,0,0,0,0,0,-5.5114,-5.5128,-5.5149,-5.5076,-5.5069,-5.5103,-5.5102,-5.5101,-5.497,-5.4966,-5.4962,-5.4958,-5.4916,-5.4918,-5.492,-5.5021,0,0,-5.4927,-5.4928,0,0,0,0,0,0,0,0,-5.5115,-5.5115,-5.5088,-5.5081,-5.5074,-5.5037,-5.5078,-5.5075,-5.4971,-5.5008,-5.4961,-5.4956,-5.496,-5.4959,-5.496,-5.5019,-5.5017,-5.4927,-5.4929,-5.493,-5.493,0,0,0,0,0,0,0,-5.5116,-5.5116,-5.5131,-5.5087,-5.5079,-5.5047,-5.5041,-5.5077,-5.5009,-5.5005,-5.4995,-5.4991,-5.4956,-5.4958,-5.4958,-5.5016,-5.4927,-5.4929,-5.4931,-5.4931,-5.5158,-5.5162,0,0,0,0,0,0,-5.5127,-5.5118,-5.5132,-5.5129,-5.5084,-5.5051,-5.5044,-5.5053,-5.5008,-5.4997,-5.4995,-5.4985,-5.4956,-5.4955,-5.4956,-5.5071,-5.493,-5.4932,-5.4933,-5.5153,-5.5159,-5.5164,0,0,0,0,0,0,-5.5127,-5.5129,-5.5134,-5.5121,-5.5119,-5.5056,-5.5068,-5.5055,-5.5056,-5.5001,-5.4989,-5.5009,-5.4953,-5.4952,-5.5006,-5.5068,-5.4933,-5.4935,-5.5148,-5.5155,-5.5161,-5.5304,0,0,0,0,0,0,-5.5127,-5.513,-5.5167,-5.5123,-5.512,-5.5184,-5.5072,-5.5057,-5.506,-5.5047,-5.5011,-5.5001,-5.4949,-5.5003,-5.5008,-5.5069,-5.4937,-5.5142,-5.5151,-5.5159,-5.5293,-5.5315,-5.5333,0,0,0,0,0,-5.5126,-5.5209,-5.5169,-5.5172,-5.5165,-5.5188,-5.5186,-5.5124,-5.5066,-5.5103,-5.5068,-5.5002,-5.5061,-5.501,-5.5014,-5.5076,-5.5138,-5.5148,-5.5158,-5.5284,-5.531,-5.5333,0,0,0,0,0,0,-5.5262,-5.5202,-5.5157,-5.5228,-5.5214,-5.5165,-5.521,-5.5154,-5.5157,-5.5145,-5.5068,-5.5062,-5.5126,-5.5106,-5.5051,-5.5173,-5.5088,-5.51,-5.5183,-5.5207,-5.5227,-5.523,-5.4939,0,0,0,0,0,-5.5301,-5.5324,-5.527,-5.5337,-5.5333,-5.5273,-5.5281,-5.5234,-5.5217,-5.5211,-5.5179,-5.5166,-5.5182,-5.5193,-5.5204,-5.529,-5.5281,-5.5335,-5.5355,-5.5372,-5.5383,-5.5428,-5.5452,-5.5198,-5.5198,-5.5198,0,0,-5.538,-5.535,-5.5369,-5.5364,-5.5348,-5.5374,-5.5269,-5.5301,-5.532,-5.5216,-5.5264,-5.5241,-5.5222,-5.5292,-5.5321,-5.5278,-5.5451,-5.5385,-5.5399,-5.5401,-5.5441,-5.5465,-5.5487,-5.5205,-5.5204,-5.5203,0,0,-5.5537,-5.5517,-5.5571,-5.5557,-5.5534,-5.5494,-5.5508,-5.5468,-5.5448,-5.5495,-5.5418,-5.5441,-5.5469,-5.5458,-5.5456,-5.5613,-5.5553,-5.5619,-5.5723,-5.5768,-5.5787,-5.5805,-5.5861,-5.5882,-5.563,-5.5631,-5.5631,0,-5.5639,-5.5674,-5.5606,-5.5644,-5.5645,-5.5551,-5.5607,-5.5597,-5.5579,-5.5583,-5.5534,-5.5568,-5.5548,-5.5615,-5.5653,-5.5655,-5.5669,-5.5622,-5.579,-5.5807,-5.5822,-5.5875,-5.5896,-5.5639,-5.5638,-5.5637,-5.5636,0,-5.5801,-5.5827,-5.5874,-5.5858,-5.5865,-5.5911,-5.5852,-5.5866,-5.582,-5.5786,-5.5836,-5.581,-5.5814,-5.5827,-5.5782,-5.5888,-5.5862,-5.5803,-5.5717,-5.5855,-5.5903,-5.5923,-5.565,-5.5647,-5.5645,-5.5643,0,0,-5.6041,-5.5988,-5.6007,-5.5999,-5.5968,-5.5987,-5.6031,-5.6034,-5.6049,-5.6041,-5.6075,-5.6102,-5.6048,-5.6046,-5.6,-5.6039,-5.6166,-5.5975,-5.5974,-5.6011,-5.6282,-5.6326,-5.635,-5.6126,-5.613,-5.6133,-5.6283,0,-5.619,-5.6259,-5.62,-5.6281,-5.6305,-5.6218,-5.6255,-5.6241,-5.6211,-5.6229,-5.6196,-5.6216,-5.6142,-5.6141,-5.6176,-5.6143,-5.6219,-5.6131,-5.6159,-5.6161,-5.6165,-5.6375,-5.6422,-5.6565,-5.6302,-5.6305,-5.6307,0,-5.6372,-5.6371,-5.6455,-5.6419,-5.6427,-5.6462,-5.6461,-5.6478,-5.6461,-5.6437,-5.6437,-5.638,-5.6421,-5.6338,-5.6395,-5.6336,-5.6345,-5.633,-5.6335,-5.6334,-5.6242,-5.638,-5.6609,-5.6631,-5.6336,-5.6334,-5.6332,0,-5.6539,-5.6559,-5.6612,-5.6608,-5.6568,-5.6595,-5.6579,-5.6558,-5.6564,-5.6565,-5.6568,-5.6574,-5.6577,-5.6584,-5.6531,-5.6475,-5.6595,-5.6507,-5.6576,-5.6578,-5.6604,-5.6603,-5.6837,-5.6611,-5.6611,-5.6611,-5.661,0,-5.6711,-5.6765,-5.6686,-5.6719,-5.6778,-5.671,-5.6771,-5.6747,-5.6729,-5.6756,-5.6682,-5.671,-5.6638,-5.6659,-5.6618,-5.6672,-5.6674,-5.6656,-5.6644,-5.6662,-5.6665,-5.6666,-5.6654,-5.6616,-5.6615,-5.6614,-5.6613,0,-5.6906,-5.6855,-5.6907,-5.6865,-5.6856,-5.6902,-5.6866,-5.6895,-5.6861,-5.6897,-5.6901,-5.6848,-5.6868,-5.6817,-5.683,-5.6802,-5.6879,-5.6852,-5.6885,-5.6876,-5.6949,-5.6943,-5.7191,-5.7221,-5.6977,-5.6979,-5.6981,0,-5.7018,-5.7058,-5.7021,-5.7034,-5.7022,-5.7044,-5.705,-5.6986,-5.6996,-5.6981,-5.7013,-5.7027,-5.7034,-5.7072,-5.7035,-5.7045,-5.7017,-5.7104,-5.7018,-5.7035,-5.7018,-5.7016,-5.702,-5.7121,-5.7124,-5.7126,-5.7128,0,-5.7224,-5.7197,-5.7208,-5.7212,-5.7222,-5.7222,-5.7217,-5.7232,-5.7164,-5.718,-5.7199,-5.7205,-5.7219,-5.7234,-5.7236,-5.7222,-5.7165,-5.7156,-5.7173,-5.7191,-5.7208,-5.72,-5.6933,-5.715,-5.7148,-5.7146,-5.7145,-5.7144,-5.738,-5.7412,-5.7391,-5.7407,-5.7397,-5.7394,-5.742,-5.7389,-5.7404,-5.7409,-5.7372,-5.74,-5.7384,-5.738,-5.7372,-5.7394,-5.7355,-5.7379,-5.7385,-5.7392,-5.7404,-5.7206,-5.7394,-5.7394,-5.7393,-5.7393,-5.7392,0,-5.7581,-5.7564,-5.7579,-5.7575,-5.7588,-5.7533,-5.7525,-5.754,-5.7565,-5.7555,-5.7564,-5.7588,-5.7603,-5.7568,-5.7578,-5.7603,-5.7577,-5.7608,-5.7605,-5.7603,-5.7438,-5.7423,-5.7629,-5.7629,-5.7629,-5.7628,-5.7628,-5.7628,-5.7687,-5.7738,-5.771,-5.7756,-5.7738,-5.7764,-5.7765,-5.7763,-5.7754,-5.7783,-5.7795,-5.7773,-5.7753,-5.7761,-5.7773,-5.7763,-5.777,-5.781,-5.7791,-5.7637,-5.7614,-5.7592,-5.7577,-5.7812,-5.7812,-5.7953,-5.7954,-5.7955]},{"header":{"parameterUnit":"m.s-1","parameterCategory":1,"la1":30.2991,"la2":30.254,"lo1":-89.0895,"lo2":-89.0444,"dy":0.0017,"dx":0.0017,"nx":28,"ny":28,"refTime":"2025-06-02T21:00:00:Z","depth":0,"parameterNumber":3,"parameterNumberName":"V-component_of_WINDS"},"data":[0,0,0,0,0,0,0,0,0,0,0,0,0,0,0,0,0,0,0,0,0,0,0,0,0,0,0,0,0,0,0,0,0,0,0,0,0,0,0,0,0,0,0,0,0,0,0,0,0,0,0,0,0,0,0,0,0,0,0.1829,0.1829,0,0.1818,0.1818,0.1818,0.1828,0.1828,0.1829,0.1829,0.1817,0.1816,0.1815,0,0,0,0,0,0,0,0,0,0,0,0,0,0.1859,0.1858,0.1829,0.1829,0.1829,0.1818,0.1818,0.1818,0.1828,0.1828,0.1829,0.1829,0.1817,0.1816,0.1815,0,0,0,0,0,0,0,0,0,0,0,0,0,0.1847,0.1858,0.1829,0.1833,0.1833,0.1818,0.1818,0.1818,0.1828,0.1828,0.1829,0.1829,0.1817,0.1816,0.1815,0.1796,0,0,0.1812,0.1811,0,0,0,0,0,0,0,0,0.1847,0.1846,0.1832,0.1832,0.1833,0.1825,0.1824,0.1811,0.1827,0.183,0.1829,0.183,0.1819,0.1818,0.1814,0.1796,0.1795,0.1812,0.1811,0.1811,0.181,0,0,0,0,0,0,0,0.1848,0.1846,0.1825,0.1832,0.1832,0.1835,0.1834,0.1822,0.1821,0.1829,0.183,0.1829,0.1819,0.1815,0.1814,0.1795,0.1812,0.1811,0.181,0.181,0.1763,0.1762,0,0,0,0,0,0,0.1849,0.1847,0.1825,0.1825,0.1842,0.1834,0.1832,0.1827,0.1821,0.1821,0.1828,0.1829,0.1817,0.1815,0.1814,0.1793,0.1811,0.181,0.1809,0.1763,0.1763,0.1762,0,0,0,0,0,0,0.1849,0.1847,0.1826,0.1836,0.1833,0.1833,0.1826,0.1826,0.1823,0.182,0.182,0.1824,0.1817,0.1815,0.1801,0.1792,0.1809,0.1808,0.1764,0.1763,0.1762,0.175,0,0,0,0,0,0,0.185,0.1847,0.184,0.1836,0.1833,0.1813,0.1826,0.1826,0.1821,0.1822,0.1817,0.1816,0.1817,0.1803,0.18,0.1791,0.1807,0.1765,0.1764,0.1763,0.1751,0.1748,0.1746,0,0,0,0,0,0.1851,0.1836,0.1839,0.1837,0.1824,0.1813,0.1811,0.1813,0.182,0.1813,0.1812,0.1816,0.1794,0.1801,0.1798,0.1789,0.1765,0.1764,0.1763,0.1752,0.1749,0.1746,0,0,0,0,0,0,0.1838,0.1835,0.1839,0.1822,0.1818,0.1814,0.1805,0.181,0.1803,0.1804,0.1807,0.1805,0.1791,0.1788,0.1797,0.1771,0.1781,0.1779,0.1773,0.1771,0.1768,0.1769,0.1806,0,0,0,0,0,0.1833,0.1825,0.1823,0.1808,0.1806,0.1806,0.1801,0.1803,0.1799,0.1797,0.1794,0.1789,0.1781,0.1776,0.1768,0.1751,0.175,0.1743,0.1741,0.1739,0.1737,0.1729,0.1726,0.1757,0.1757,0.1757,0,0,0.1823,0.1821,0.1815,0.1806,0.1802,0.1794,0.1804,0.1794,0.1788,0.1795,0.1782,0.178,0.1775,0.176,0.1753,0.1757,0.1728,0.1737,0.1736,0.1735,0.1727,0.1724,0.1721,0.1756,0.1757,0.1757,0,0,0.1801,0.1797,0.1786,0.1783,0.1778,0.1779,0.1776,0.1772,0.1771,0.1759,0.1764,0.1757,0.1742,0.1739,0.1735,0.1713,0.1717,0.171,0.1698,0.169,0.1688,0.1686,0.1679,0.1676,0.1709,0.1709,0.1709,0,0.1788,0.1775,0.1779,0.1769,0.1765,0.1772,0.176,0.1757,0.175,0.1747,0.1752,0.1736,0.1732,0.1717,0.1712,0.1708,0.1705,0.1711,0.1688,0.1686,0.1684,0.1677,0.1674,0.1708,0.1708,0.1708,0.1708,0,0.1761,0.1752,0.1743,0.1737,0.1732,0.1721,0.1723,0.1718,0.1721,0.1721,0.1708,0.1705,0.1698,0.1694,0.1696,0.1679,0.1682,0.1688,0.1697,0.168,0.1674,0.1671,0.1707,0.1707,0.1707,0.1707,0,0,0.1729,0.1726,0.1723,0.1721,0.1717,0.171,0.17,0.1693,0.1689,0.1684,0.1676,0.1665,0.167,0.1666,0.1668,0.1661,0.1645,0.1668,0.1668,0.1664,0.1627,0.1623,0.162,0.1648,0.1648,0.1647,0.1628,0,0.1707,0.1689,0.1693,0.1676,0.1668,0.1676,0.1667,0.1664,0.1664,0.1658,0.1658,0.165,0.1658,0.1655,0.1649,0.1648,0.1638,0.165,0.1641,0.1641,0.1642,0.1617,0.1612,0.1594,0.1625,0.1625,0.1624,0,0.1678,0.1673,0.1656,0.1655,0.1652,0.1644,0.1639,0.1633,0.163,0.163,0.1627,0.163,0.1621,0.1631,0.1618,0.1626,0.1623,0.1622,0.1621,0.1621,0.1632,0.1616,0.1588,0.1585,0.162,0.1621,0.1621,0,0.1657,0.1646,0.1635,0.1633,0.1631,0.1626,0.1625,0.1622,0.1619,0.1614,0.1612,0.1606,0.1603,0.1598,0.1601,0.1607,0.1588,0.1597,0.1588,0.1588,0.1584,0.1584,0.1555,0.1581,0.1581,0.1581,0.1581,0,0.1632,0.1621,0.1626,0.1619,0.1607,0.1612,0.16,0.16,0.1598,0.1592,0.1598,0.1591,0.1595,0.1589,0.159,0.158,0.1578,0.1579,0.158,0.1579,0.1579,0.1576,0.1578,0.158,0.1581,0.1581,0.1581,0,0.1606,0.1609,0.1597,0.1597,0.1597,0.1589,0.1589,0.1582,0.1583,0.1575,0.1573,0.1575,0.1568,0.1571,0.1563,0.1564,0.1551,0.1553,0.1553,0.1553,0.1544,0.1545,0.1514,0.151,0.1537,0.1537,0.1537,0,0.159,0.1582,0.1582,0.1578,0.1577,0.1571,0.1568,0.1572,0.1568,0.1565,0.1559,0.1553,0.1549,0.1538,0.1538,0.1533,0.1535,0.1525,0.1535,0.1534,0.1536,0.1537,0.1536,0.1523,0.1522,0.1522,0.1522,0,0.1562,0.1564,0.1559,0.1555,0.1551,0.1548,0.1545,0.1542,0.1546,0.1541,0.1535,0.1532,0.1525,0.1519,0.1515,0.1514,0.1519,0.1519,0.1517,0.1516,0.1516,0.1516,0.1548,0.1519,0.152,0.152,0.152,0.152,0.1541,0.1535,0.1534,0.1529,0.1527,0.1525,0.152,0.1521,0.1516,0.1511,0.1514,0.1507,0.1505,0.15,0.1498,0.1493,0.1497,0.1494,0.1493,0.1492,0.1491,0.1517,0.1492,0.1492,0.1492,0.1492,0.1492,0,0.1513,0.1513,0.1508,0.1505,0.1501,0.1507,0.1505,0.1501,0.1495,0.1493,0.1489,0.1483,0.1478,0.1478,0.1474,0.1469,0.1472,0.1468,0.1469,0.1469,0.1487,0.149,0.1467,0.1467,0.1467,0.1467,0.1467,0.1467,0.1498,0.1489,0.1491,0.1481,0.1481,0.1475,0.1474,0.1472,0.1471,0.1463,0.1459,0.146,0.146,0.1455,0.1451,0.1452,0.145,0.1446,0.1447,0.1464,0.1467,0.1469,0.1472,0.1445,0.1445,0.1428,0.1428,0.1428]}]]